Flag for U.S.A. Weather past 2 weeks in Corpus Christi, Texas, U.S.A.

Now
87 °F

Broken clouds.


Feels Like: 97 °F
Forecast: 78 / 89 °F
Wind: 12 mph from East

Location: Corpus Christi International Airport

Current Time: Sep 20, 2014 at 5:23:00 PM

Latest Report: Sep 20, 2014 at 4:51 PM


Visibility: 10 mi

Pressure: 29.85 "Hg

Humidity: 67%

Dew point: 75 °F

Location of Corpus ChristiLocation

Historic Weather in Corpus Christi — Graph

°F

Corpus Christi temperature yesterday

Maximum temperature yesterday: 91 °F (at 12:51 PM)
Minimum temperature yesterday: 77 °F (at 3:51 AM)
Average temperature yesterday: 82 °F

Past Weeks' High & Low Weather Summary

 TemperatureHumidityPressure
High94 °F (Sep 10, 2:51 PM)97% (Sep 6, 6:51 AM)30.15 "Hg (Sep 6, 6:51 AM)
Low69 °F (Sep 13, 10:51 AM)52% (Sep 9, 1:51 PM)29.76 "Hg (Sep 18, 4:51 PM)
Average81 °F80%29.94 "Hg
* Reported Sep 5 2:51 PM — Sep 20 2:51 PM, Corpus Christi, Weather by CustomWeather, © 2014

Note: Actual official high and low records may vary slightly from our data, if they occured in-between our weather recording intervals... More about our weather records

Advertising

Corpus Christi weather history for previous 24 hours

 ConditionsComfort  
Time TempWeatherWind HumidityBarometerVisibility
2:51 PM
Sep 20
87 °FPartly sunny.14 mph65%29.87 "Hg10 mi
1:51 PM89 °FBroken clouds.15 mph63%29.89 "Hg10 mi
12:51 PM88 °FBroken clouds.14 mph67%29.92 "Hg10 mi
7:51 AM78 °FPassing clouds.3 mph90%29.87 "Hg10 mi
6:51 AM77 °FPassing clouds.7 mph90%29.86 "Hg10 mi
5:51 AM76 °FPartly cloudy.No wind94%29.85 "Hg10 mi
4:51 AM78 °FPartly cloudy.8 mph90%29.85 "Hg10 mi
3:51 AM78 °FPartly cloudy.No wind90%29.86 "Hg10 mi
2:51 AM79 °FPassing clouds.3 mph90%29.87 "Hg10 mi
1:51 AM79 °FPartly cloudy.5 mph90%29.86 "Hg10 mi
12:51 AM80 °FPassing clouds.7 mph87%29.88 "Hg10 mi
11:51 PM
Sep 19
81 °FPassing clouds.9 mph85%29.88 "Hg10 mi
10:51 PM81 °FPassing clouds.8 mph85%29.88 "Hg10 mi
9:51 PM81 °FPassing clouds.10 mph85%29.87 "Hg10 mi
8:51 PM81 °FPassing clouds.10 mph85%29.85 "Hg10 mi
7:51 PM82 °FBroken clouds.13 mph85%29.84 "Hg10 mi
6:51 PM83 °FBroken clouds.15 mph82%29.82 "Hg10 mi
5:51 PM84 °FBroken clouds.17 mph77%29.80 "Hg10 mi
Weather by CustomWeather, © 2014

See weather overviewHow to use our weather pages